Moses Lake, WA

1:32 PM PDT on September 28, 2016 (GMT -0700)
Grant County International

Weather History for KMWH - December, 2012

Change the Weather History Date:

Wednesday, December 12, 2012

  Actual Average Record
Temperature  
Mean Temperature 34 °F 29 °F  
Max Temperature 38 °F 35 °F 53 °F (1999)
Min Temperature 29 °F 23 °F 2 °F (1985)
Degree Days  
Heating Degree Days 31 36  
Month to date heating degree days 308 419  
Since 1 July heating degree days 1576 1880  
Cooling Degree Days 0 0  
Month to date cooling degree days 0 0  
Year to date cooling degree days 719 615  
Moisture  
Dew Point 30 °F    
Average Humidity 91    
Maximum Humidity 100    
Minimum Humidity 82    
Precipitation  
Precipitation 0.05 in 0.04 in 0.31 in (1998)
Month to date precipitation 0.75 0.44  
Year to date precipitation 8.49 8.11  
Sea Level Pressure  
Sea Level Pressure 29.80 in    
Wind  
Wind Speed 2 mph (NW)    
Max Wind Speed 8 mph    
Max Gust Speed 10 mph    
Visibility 5 miles    
Events Fog , Snow    
T = Trace of Precipitation, MM = Missing Value Source: NWS Daily Summary

Daily Weather History Graph

Daily Weather History Graph

Search for Another Location

Airport or City:

Trip Planner

Search our weather history database for the weather conditions in past years. The results will help you decide how hot, cold, wet, or windy it might be!

Date:

Astronomy

Dec. 12, 2012 Rise Set
Actual Time 7:35 AM PST 4:07 PM PST
Civil Twilight 6:59 AM PST 4:42 PM PST
Nautical Twilight 6:20 AM PST 5:21 PM PST
Astronomical Twilight 5:43 AM PST 5:58 PM PST
Moon 6:43 AM PST (12/12) 3:50 PM PST (12/12)
Length of Visible Light 9h 43m
Length of Day
8h 32m
Waning Crescent, 0% of the Moon is Illuminated
Dec 12
Waning Crescent
Dec 13
New
Dec 19
First Quarter
Dec 28
Full
Jan 4
Last Quarter

Hourly Weather History & Observations

Time (PST) Temp. Windchill Dew Point Humidity Pressure Visibility Wind Dir Wind Speed Gust Speed Precip Events Conditions
12:06 AM 33.8 °F 30.8 °F 30.2 °F 87% 29.59 in 5.0 mi NNW 3.5 mph - N/A   Overcast
12:52 AM 33.1 °F 30.0 °F 30.9 °F 92% 29.62 in 6.0 mi NNW 3.5 mph - N/A   Overcast
1:32 AM 33.8 °F - 32.0 °F 93% 29.59 in 5.0 mi Calm Calm - N/A   Overcast
1:52 AM 33.1 °F - 30.9 °F 92% 29.62 in 5.0 mi Calm Calm - N/A   Overcast
2:02 AM 33.8 °F - 30.2 °F 87% 29.60 in 5.0 mi Calm Calm - N/A   Overcast
2:13 AM 33.8 °F - 30.2 °F 87% 29.60 in 5.0 mi Calm Calm - N/A   Overcast
2:42 AM 33.8 °F 30.8 °F 30.2 °F 87% 29.61 in 6.0 mi West 3.5 mph - N/A   Overcast
2:52 AM 33.1 °F 28.7 °F 30.9 °F 92% 29.64 in 6.0 mi WNW 4.6 mph - N/A   Overcast
3:52 AM 34.0 °F 29.8 °F 32.0 °F 92% 29.65 in 8.0 mi WNW 4.6 mph - N/A   Overcast
4:52 AM 34.0 °F 31.0 °F 32.0 °F 92% 29.66 in 7.0 mi WSW 3.5 mph - N/A   Overcast
5:52 AM 34.0 °F 29.8 °F 30.9 °F 89% 29.68 in 9.0 mi SW 4.6 mph - N/A   Mostly Cloudy
5:59 AM 33.8 °F 29.6 °F 30.2 °F 87% 29.64 in 7.0 mi SW 4.6 mph - N/A   Scattered Clouds
6:12 AM 33.8 °F 29.6 °F 30.2 °F 87% 29.65 in 6.0 mi SW 4.6 mph - N/A   Mostly Cloudy
6:52 AM 33.1 °F 30.0 °F 30.9 °F 92% 29.71 in 7.0 mi West 3.5 mph - N/A   Overcast
7:52 AM 32.0 °F - 30.0 °F 92% 29.73 in 10.0 mi Calm Calm - N/A   Mostly Cloudy
8:04 AM 32.0 °F - 30.2 °F 93% 29.70 in 10.0 mi Calm Calm - N/A   Mostly Cloudy
8:14 AM 32.0 °F - 30.2 °F 93% 29.71 in 10.0 mi Calm Calm - N/A   Overcast
8:41 AM 32.0 °F 28.7 °F 30.2 °F 93% 29.72 in 10.0 mi WNW 3.5 mph - N/A   Overcast
8:52 AM 33.1 °F - 30.0 °F 89% 29.76 in 10.0 mi Calm Calm - N/A   Overcast
9:20 AM 33.8 °F 30.8 °F 30.2 °F 87% 29.74 in 10.0 mi West 3.5 mph - N/A   Overcast
9:29 AM 33.8 °F 30.8 °F 30.2 °F 87% 29.74 in 10.0 mi West 3.5 mph - N/A   Overcast
9:39 AM 35.6 °F - 30.2 °F 81% 29.75 in 10.0 mi Calm Calm - N/A   Overcast
9:52 AM 35.1 °F - 30.9 °F 85% 29.78 in 10.0 mi Calm Calm - N/A   Overcast
10:28 AM 37.4 °F - 33.8 °F 87% 29.76 in 10.0 mi Calm Calm - N/A   Scattered Clouds
10:35 AM 37.4 °F - 33.8 °F 87% 29.77 in 10.0 mi Calm Calm - N/A   Partly Cloudy
10:52 AM 37.0 °F 34.5 °F 32.0 °F 82% 29.80 in 10.0 mi SW 3.5 mph - N/A   Mostly Cloudy
11:52 AM 37.0 °F - 32.0 °F 82% 29.82 in 9.0 mi Calm Calm - 0.00 in   Overcast
12:42 PM 33.8 °F 28.6 °F 30.2 °F 87% 29.80 in 1.8 mi North 5.8 mph - 0.03 in Snow Light Snow
12:52 PM 33.1 °F 30.0 °F 30.9 °F 92% 29.83 in 1.2 mi North 3.5 mph - 0.03 in Snow Light Snow
12:59 PM 33.8 °F 30.8 °F 30.2 °F 87% 29.80 in 1.5 mi North 3.5 mph - 0.01 in Snow Light Snow
1:07 PM 33.8 °F - 32.0 °F 93% 29.80 in 3.0 mi Calm Calm - N/A Snow Light Snow
1:52 PM 34.0 °F - 32.0 °F 92% 29.85 in 3.0 mi Calm Calm - 0.02 in Snow Light Snow
1:59 PM 33.8 °F - 32.0 °F 93% 29.81 in 9.0 mi Calm Calm - 0.00 in   Overcast
2:06 PM 35.6 °F - 33.8 °F 93% 29.82 in 10.0 mi Calm Calm - 0.00 in   Overcast
2:52 PM 35.1 °F - 32.0 °F 89% 29.87 in 10.0 mi Calm Calm - 0.00 in   Overcast
3:52 PM 35.1 °F - 32.0 °F 89% 29.89 in 10.0 mi Calm Calm - N/A   Overcast
4:52 PM 35.1 °F - 33.1 °F 92% 29.91 in 10.0 mi Calm Calm - N/A   Overcast
5:45 PM 33.8 °F - 30.2 °F 87% 29.89 in 7.0 mi Calm Calm - N/A   Scattered Clouds
5:52 PM 34.0 °F - 30.9 °F 89% 29.93 in 7.0 mi Calm Calm - N/A   Partly Cloudy
6:43 PM 30.2 °F 26.7 °F 28.4 °F 93% 29.90 in 2.0 mi SE 3.5 mph - N/A   Partly Cloudy
6:48 PM 30.2 °F 26.7 °F 28.4 °F 93% 29.90 in 1.0 mi ESE 3.5 mph - N/A   Mist
6:52 PM 30.9 °F 27.5 °F 28.9 °F 92% 29.94 in 0.5 mi ESE 3.5 mph - N/A Fog Light Freezing Fog
6:56 PM 32.0 °F 28.7 °F 28.4 °F 87% 29.90 in 0.2 mi ESE 3.5 mph - N/A Fog Fog
7:43 PM 32.0 °F - 30.2 °F 93% 29.92 in 0.1 mi Calm Calm - N/A Fog Fog
7:52 PM 32.0 °F - 30.0 °F 92% 29.96 in 0.1 mi Calm Calm - N/A Fog Fog
8:01 PM 32.0 °F 28.7 °F 30.2 °F 93% 29.92 in 0.1 mi ESE 3.5 mph - N/A Fog Fog
8:11 PM 32.0 °F 28.7 °F 28.4 °F 87% 29.93 in 0.1 mi East 3.5 mph - N/A Fog Fog
8:20 PM 32.0 °F - 28.4 °F 87% 29.93 in 0.1 mi Calm Calm - N/A Fog Fog
8:52 PM 30.9 °F 25.2 °F 28.9 °F 92% 29.98 in 0.1 mi NE 5.8 mph - N/A Fog Light Freezing Fog
9:32 PM 30.2 °F 24.3 °F 28.4 °F 93% 29.96 in 0.5 mi ENE 5.8 mph - N/A Fog Light Freezing Fog
9:52 PM 30.0 °F 23.2 °F 28.0 °F 92% 30.01 in 0.5 mi NNE 6.9 mph - N/A Fog Light Freezing Fog
10:37 PM 28.4 °F 23.3 °F 26.6 °F 93% 29.99 in 1.5 mi NNE 4.6 mph - N/A   Overcast
10:52 PM 28.9 °F - 28.0 °F 96% 30.02 in 1.0 mi Calm Calm - N/A   Mist
11:31 PM 30.2 °F - 28.4 °F 93% 30.00 in 0.5 mi Calm Calm - N/A Fog Light Freezing Fog
11:52 PM 30.0 °F - 28.0 °F 92% 30.04 in 0.8 mi Calm Calm - N/A   Mist